Weather Roundup
Issued by NWS

Home | Current Version | Previous Version | Text Only | Print | Product List | Glossary On
Versions: 1 2 3 4 5 6 7 8 9 10 11 12 13 14 15 16 17 18 19 20 21 22 23 24 25 26 27 28 29 30 31 32 33 34 35 36 37 38 39 40 41 42 43 44 45 46 47 48 49 50
000
NZUS93 KARX 240610
HRRWXR

CURRENT HOURLY OBSERVATIONS ACROSS
MUCH OF THE UPPER MISSISSIPPI VALLEY
NATIONAL WEATHER SERVICE LA CROSSE WI
100 AM CDT THU APR 24 2014


...SOUTHEAST MINNESOTA...


CITY           SKY/WX    TMP DP  RH WIND       PRES   REMARKS
ROCHESTER      CLOUDY    44  35  70 SE22      29.90F
ROCHESTER/MAYO CLOUDY    44  33  65 E14G23    29.91F
WINONA         CLOUDY    45  39  81 SE14      29.98S
AUSTIN         DRIZZLE   45  37  76 SE18G26   29.88S
ALBERT LEA     RAIN      43  39  87 SE22G32   29.85F
DODGE CENTER   CLOUDY    46  37  71 SE22G31   29.88S
PRESTON        CLOUDY    43  38  80 SE14G20   29.93F
OWATONNA       CLOUDY    46  36  66 SE20G30   29.86S
FARIBAULT      CLOUDY    48  34  57 E12G17    29.89R
$$

...ELSEWHERE IN MINNESOTA...


CITY           SKY/WX    TMP DP  RH WIND       PRES   REMARKS
MINNEAPOLIS    CLOUDY    43  38  82 E15       29.91F
INTNL FALLS    LGT RAIN  39  35  86 SE10      29.99S WCI  32
DULUTH         LGT RAIN  36  33  89 SE10      30.00F WCI  28
RED WING       CLOUDY    46  37  71 SE12G20   29.93S
REDWOOD FALLS  CLOUDY    44  37  76 E13       29.81S
MANKATO        CLOUDY    45  36  70 SE14      29.86S
WORTHINGTON    MOCLDY    43  36  75 SE12      29.75R
FAIRMONT       CLOUDY    45  37  76 SE22      29.80F
$$

...SOUTHWEST WISCONSIN...


CITY           SKY/WX    TMP DP  RH WIND       PRES   REMARKS
LA CROSSE      LGT RAIN  43  38  82 E10       30.01R
PRAIRIE DU CHI LGT RAIN  44  35  69 E7        30.01R
BOSCOBEL       CLOUDY    45  34  65 E9        30.02R
LONE ROCK      LGT RAIN  41  36  82 E15       30.06R
PLATTEVILLE    MOCLDY    42  35  77 E18G24    30.00F
FORT MC COY    RAIN      41  39  94 E8        30.05R
CAMP DOUGLAS   LGT RAIN  39  39  99 E13       30.07R WCI  31
VIROQUA        CLOUDY    39  36  87 E18       29.99F WCI  30
WIS DELLS      DRIZZLE   37  34  87 E3        30.09R
$$

...ELSEWHERE IN WISCONSIN...


CITY           SKY/WX    TMP DP  RH WIND       PRES   REMARKS
MILWAUKEE      LGT RAIN  38  23  55 NE7       30.08F WCI  33
MADISON        CLOUDY    39  30  70 MISG      30.08R
GREEN BAY      CLOUDY    41  20  43 E6        30.10F
EAU CLAIRE     CLOUDY    41  39  93 E13       30.00S
BLACK RVR FLS  LGT RAIN  41  41  99 E10       30.03R
MEDFORD        DRIZZLE   38  34  86 E6        30.05R WCI  33
WAUSAU         LGT RAIN  40  25  55 E9        30.06R WCI  34
WIS RAPIDS     LGT RAIN  37  33  85 SE5       30.09R WCI  33
MARSHFIELD     LGT RAIN  38  31  76 SE10      30.06R WCI  31
RICE LAKE      CLOUDY    39  37  93 E13G21    30.01F WCI  32
$$

...NORTHEAST IOWA...


CITY           SKY/WX    TMP DP  RH WIND       PRES   REMARKS
WATERLOO       LGT RAIN  46  40  79 SE20      29.90R
DUBUQUE        CLOUDY    44  34  67 E14       29.97R
DECORAH        MOCLDY    43  37  81 E14G23    29.93F
MASON CITY     LGT RAIN  43  40  89 SE15      29.87R
CHARLES CITY   LGT RAIN  45  39  81 SE23      29.88F
OELWEIN        DRIZZLE  N/A N/A N/A SE17G24   29.93S
$$

...ELSEWHERE IN IOWA...


CITY           SKY/WX    TMP DP  RH WIND       PRES   REMARKS
DES MOINES     LGT RAIN  52  39  61 SE13      29.78F
IOWA CITY      MOCLDY    48  40  73 E8        29.93R
FORT DODGE     CLOUDY    45  39  81 SE14G22   29.80S
MARSHALLTOWN   CLOUDY    47  40  76 E17       29.83F
CEDAR RAPIDS   CLOUDY    47  39  74 SE15      29.89S
$$

...NORTHERN ILLINOIS...


CITY           SKY/WX    TMP DP  RH WIND       PRES   REMARKS
CHICAGO-OHARE  LGT RAIN  40  29  64 N8        30.08R WCI  34
DUPAGE         CLOUDY    39  32  76 NE6       30.07R WCI  35
CHICAGO-MIDWAY LGT RAIN  41  33  73 NE7       30.07R
MOLINE         MOCLDY    47  39  74 E14       29.95R
ROCKFORD       CLOUDY    40  29  64 E10       30.06S WCI  33
STERLING       MOCLDY    43  34  70 E13       30.00R
PEORIA         FAIR      53  36  52 E7        29.97F
$$

NOTE: "FAIR" INDICATES FEW OR NO CLOUDS BELOW 12,000 FEET WITH NO
SIGNIFICANT WEATHER AND/OR OBSTRUCTIONS TO VISIBILITY. WIND
SPEEDS ARE IN MILES-PER-HOUR.



USA.gov is the U.S. government's official web portal to all federal, state and local government web resources and services.